User: anonymous
Location: Fort Wayne
(41.1310°N, 85.1290°W)
Time: 07:50:39
(UTC-04:00)
Language:

SL-08 RB Rocket - Orbit

View from above orbital plane
View from above orbital plane
View from above satellite
View from above satellite

Ground track
Ground track

The orbit data is extracted from the following two-line orbital elements,

1 26387U 00033D   14272.77964647  .00001027  00000-0  18959-3 0  6271
2 26387 098.0963 339.3064 0025939 240.3440 264.6057 14.67393855762428
Epoch (UTC): 29 September 2014 18:42:41
Eccentricity: 0.0025939
inclination: 98.0963°
perigee height: 651 km
apogee height: 687 km
right ascension of ascending node: 339.3064°
argument of perigee: 240.3440°
revolutions per day: 14.67393855
mean anomaly at epoch: 264.6057°
orbit number at epoch: 76242

The dashed part of the orbit path shows where the satellite is in the earth's shadow,  

DLR